| time (UTC) | temp F | wind direction | speed knots | gust knots | rain 1hr in | rain 24hr in | rain mn in | humidity % | barometer mb |
| 20260504004525 | 50 | 205 | 0.0 | 0.0 | 0.00 | 0.00 | 0.00 | 50 | 1015.5 |
| 20260504004025 | 50 | 205 | 0.0 | 0.0 | 0.00 | 0.00 | 0.00 | 50 | 1015.4 |
| 20260504003524 | 51 | 205 | 0.0 | 0.0 | 0.00 | 0.00 | 0.00 | 50 | 1015.5 |
| 20260504003031 | 51 | 205 | 0.0 | 0.0 | 0.00 | 0.00 | 0.00 | 49 | 1015.4 |
| 20260504002524 | 51 | 205 | 0.0 | 0.0 | 0.00 | 0.00 | 0.00 | 49 | 1015.4 |
| 20260504002024 | 52 | 205 | 0.0 | 0.0 | 0.00 | 0.00 | 0.00 | 48 | 1015.4 |
| 20260504001523 | 52 | 205 | 0.0 | 0.0 | 0.00 | 0.00 | 0.00 | 47 | 1015.4 |
| 20260504001023 | 52 | 205 | 0.0 | 0.0 | 0.00 | 0.00 | 0.00 | 48 | 1015.5 |
| 20260504000522 | 53 | 205 | 0.0 | 0.0 | 0.00 | 0.00 | 0.00 | 46 | 1015.5 |
| 20260504000023 | 53 | 205 | 0.0 | 1.7 | 0.00 | 0.00 | 0.00 | 44 | 1015.6 |
| 20260503235522 | 53 | 205 | 0.0 | 1.7 | 0.00 | 0.00 | 0.00 | 43 | 1015.5 |
| 20260503235022 | 53 | 162 | 0.0 | 1.7 | 0.00 | 0.00 | 0.00 | 44 | 1015.6 |
| 20260503234522 | 54 | 261 | 0.9 | 1.7 | 0.00 | 0.00 | 0.00 | 44 | 1015.5 |
| 20260503234021 | 54 | 213 | 0.0 | 3.5 | 0.00 | 0.00 | 0.00 | 41 | 1015.6 |
| 20260503233521 | 54 | 236 | 1.7 | 3.5 | 0.00 | 0.00 | 0.00 | 41 | 1015.6 |
| 20260503233020 | 55 | 246 | 0.0 | 3.5 | 0.00 | 0.00 | 0.00 | 42 | 1015.7 |
| 20260503232519 | 55 | 284 | 0.0 | 4.3 | 0.00 | 0.00 | 0.00 | 41 | 1015.7 |
| 20260503232019 | 55 | 251 | 0.9 | 4.3 | 0.00 | 0.00 | 0.00 | 41 | 1015.7 |
| 20260503231523 | 55 | 220 | 0.9 | 6.1 | 0.00 | 0.00 | 0.00 | 42 | 1015.7 |
| 20260503231019 | 55 | 225 | 0.9 | 4.3 | 0.00 | 0.00 | 0.00 | 39 | 1015.7 |
| 20260503230522 | 56 | 248 | 0.9 | 9.6 | 0.00 | 0.00 | 0.00 | 37 | 1015.8 |
| 20260503230018 | 56 | 239 | 3.5 | 9.6 | 0.00 | 0.00 | 0.00 | 36 | 1015.8 |
| 20260503225521 | 56 | 243 | 3.5 | 7.0 | 0.00 | 0.00 | 0.00 | 35 | 1015.9 |
| 20260503225022 | 57 | 273 | 2.6 | 4.3 | 0.00 | 0.00 | 0.00 | 36 | 1015.7 |
| 20260503224519 | 57 | 269 | 1.7 | 4.3 | 0.00 | 0.00 | 0.00 | 36 | 1015.9 |
| 20260503224019 | 57 | 188 | 0.9 | 7.0 | 0.00 | 0.00 | 0.00 | 38 | 1015.9 |
| 20260503223519 | 57 | 254 | 3.5 | 7.0 | 0.00 | 0.00 | 0.00 | 36 | 1016.0 |
| 20260503223019 | 57 | 322 | 2.6 | 7.0 | 0.00 | 0.00 | 0.00 | 36 | 1015.9 |
| 20260503222518 | 57 | 282 | 1.7 | 7.8 | 0.00 | 0.00 | 0.00 | 36 | 1015.9 |
| 20260503222017 | 57 | 186 | 2.6 | 9.6 | 0.00 | 0.00 | 0.00 | 35 | 1016.0 |
| 20260503221522 | 57 | 216 | 4.3 | 11.3 | 0.00 | 0.00 | 0.00 | 35 | 1016.0 |
| 20260503221017 | 57 | 273 | 5.2 | 11.3 | 0.00 | 0.00 | 0.00 | 35 | 1015.9 |
| 20260503220519 | 57 | 257 | 1.7 | 8.7 | 0.00 | 0.00 | 0.00 | 37 | 1015.9 |
| 20260503220022 | 58 | 270 | 2.6 | 8.7 | 0.00 | 0.00 | 0.00 | 37 | 1016.0 |
| 20260503215515 | 58 | 240 | 3.5 | 8.7 | 0.00 | 0.00 | 0.00 | 35 | 1015.9 |
| 20260503215014 | 58 | 230 | 4.3 | 7.8 | 0.00 | 0.00 | 0.00 | 35 | 1015.7 |
| 20260503214521 | 58 | 229 | 2.6 | 5.2 | 0.00 | 0.00 | 0.00 | 34 | 1015.7 |
| 20260503214014 | 57 | 296 | 1.7 | 7.8 | 0.00 | 0.00 | 0.00 | 35 | 1015.8 |
| 20260503213514 | 57 | 242 | 2.6 | 7.8 | 0.00 | 0.00 | 0.00 | 37 | 1015.8 |
| 20260503213013 | 57 | 249 | 0.9 | 7.8 | 0.00 | 0.00 | 0.00 | 35 | 1015.8 |
| 20260503212513 | 57 | 254 | 2.6 | 9.6 | 0.00 | 0.00 | 0.00 | 36 | 1015.8 |
| 20260503212011 | 57 | 233 | 3.5 | 9.6 | 0.00 | 0.00 | 0.00 | 34 | 1015.9 |
| 20260503211512 | 58 | 242 | 3.5 | 7.8 | 0.00 | 0.00 | 0.00 | 35 | 1015.9 |
| 20260503211011 | 58 | 182 | 0.0 | 5.2 | 0.00 | 0.00 | 0.00 | 36 | 1015.9 |
| 20260503210512 | 58 | 260 | 1.7 | 6.1 | 0.00 | 0.00 | 0.00 | 37 | 1016.0 |
| 20260503210110 | 57 | 268 | 1.7 | 8.7 | 0.00 | 0.00 | 0.00 | 36 | 1016.0 |
| 20260503205509 | 57 | 326 | 1.7 | 8.7 | 0.00 | 0.00 | 0.00 | 37 | 1016.1 |
| 20260503205008 | 57 | 217 | 3.5 | 7.8 | 0.00 | 0.00 | 0.00 | 40 | 1016.1 |
| 20260503204516 | 57 | 73 | 1.7 | 7.0 | 0.00 | 0.00 | 0.00 | 40 | 1016.1 |
| 20260503204006 | 57 | 219 | 2.6 | 9.6 | 0.00 | 0.00 | 0.00 | 38 | 1016.3 |
| 20260503203506 | 57 | 229 | 4.3 | 9.6 | 0.00 | 0.00 | 0.00 | 38 | 1016.4 |
| 20260503203005 | 57 | 250 | 3.5 | 8.7 | 0.00 | 0.00 | 0.00 | 38 | 1016.4 |
| 20260503202504 | 57 | 265 | 3.5 | 9.6 | 0.00 | 0.00 | 0.00 | 40 | 1016.5 |
| 20260503202003 | 56 | 241 | 3.5 | 9.6 | 0.00 | 0.00 | 0.00 | 36 | 1016.6 |
| 20260503201506 | 57 | 243 | 4.3 | 8.7 | 0.00 | 0.00 | 0.00 | 36 | 1016.5 |
| 20260503201003 | 56 | 153 | 3.5 | 7.8 | 0.00 | 0.00 | 0.00 | 39 | 1016.6 |
| 20260503200501 | 56 | 254 | 1.7 | 7.0 | 0.00 | 0.00 | 0.00 | 39 | 1016.7 |
| 20260503200006 | 56 | 202 | 1.7 | 8.7 | 0.00 | 0.00 | 0.00 | 37 | 1016.9 |
| 20260503195501 | 56 | 140 | 4.3 | 8.7 | 0.00 | 0.00 | 0.00 | 37 | 1017.2 |
| 20260503195101 | 56 | 13 | 2.6 | 8.7 | 0.00 | 0.00 | 0.00 | 39 | 1017.2 |
| 20260503194604 | 56 | 246 | 1.7 | 7.0 | 0.00 | 0.00 | 0.00 | 41 | 1017.2 |
| 20260503194100 | 55 | 70 | 3.5 | 7.0 | 0.00 | 0.00 | 0.00 | 39 | 1017.4 |
| 20260503193600 | 56 | 250 | 3.5 | 13.0 | 0.00 | 0.00 | 0.00 | 37 | 1017.4 |
| 20260503193501 | 56 | 238 | 4.3 | 13.0 | 0.00 | 0.00 | 0.00 | 36 | 1017.5 |
| 20260503193100 | 56 | 206 | 2.6 | 12.2 | 0.00 | 0.00 | 0.00 | 39 | 1017.6 |
| 20260503192558 | 56 | 198 | 6.1 | 13.0 | 0.00 | 0.00 | 0.00 | 39 | 1017.7 |
| 20260503192058 | 56 | 171 | 3.5 | 13.0 | 0.00 | 0.00 | 0.00 | 36 | 1017.7 |
| 20260503191557 | 55 | 219 | 1.7 | 7.8 | 0.00 | 0.00 | 0.00 | 40 | 1017.6 |
| 20260503191058 | 55 | 214 | 2.6 | 9.6 | 0.00 | 0.00 | 0.00 | 43 | 1017.7 |
| 20260503190557 | 55 | 180 | 2.6 | 12.2 | 0.00 | 0.00 | 0.00 | 37 | 1017.8 |
| 20260503190056 | 55 | 198 | 4.3 | 12.2 | 0.00 | 0.00 | 0.00 | 39 | 1017.9 |
| 20260503185556 | 55 | 43 | 3.5 | 7.8 | 0.00 | 0.00 | 0.00 | 37 | 1017.8 |
| 20260503185059 | 55 | 279 | 1.7 | 7.8 | 0.00 | 0.00 | 0.00 | 37 | 1017.9 |
| 20260503184604 | 55 | 185 | 2.6 | 8.7 | 0.00 | 0.00 | 0.00 | 43 | 1018.1 |
| 20260503184055 | 55 | 164 | 1.7 | 13.9 | 0.00 | 0.00 | 0.00 | 45 | 1018.2 |
| 20260503183554 | 54 | 244 | 5.2 | 13.9 | 0.00 | 0.00 | 0.00 | 38 | 1018.3 |
| 20260503183055 | 54 | 250 | 3.5 | 9.6 | 0.00 | 0.00 | 0.00 | 41 | 1018.2 |
| 20260503182556 | 54 | 241 | 4.3 | 8.7 | 0.00 | 0.00 | 0.00 | 38 | 1018.2 |
| 20260503182052 | 54 | 187 | 2.6 | 9.6 | 0.00 | 0.00 | 0.00 | 42 | 1018.3 |
| 20260503181553 | 54 | 71 | 3.5 | 9.6 | 0.00 | 0.00 | 0.00 | 42 | 1018.4 |
| 20260503181053 | 53 | 279 | 0.9 | 8.7 | 0.00 | 0.00 | 0.00 | 43 | 1018.4 |
| 20260503180552 | 54 | 78 | 1.7 | 9.6 | 0.00 | 0.00 | 0.00 | 42 | 1018.4 |
| 20260503180104 | 54 | 232 | 5.2 | 9.6 | 0.00 | 0.00 | 0.00 | 42 | 1018.5 |
| 20260503175551 | 53 | 27 | 0.9 | 5.2 | 0.00 | 0.00 | 0.00 | 40 | 1018.5 |
| 20260503175050 | 53 | 5 | 1.7 | 8.7 | 0.00 | 0.00 | 0.00 | 42 | 1018.6 |
| 20260503174550 | 52 | 51 | 1.7 | 8.7 | 0.00 | 0.00 | 0.00 | 47 | 1018.7 |
| 20260503174052 | 52 | 91 | 0.9 | 7.8 | 0.00 | 0.00 | 0.00 | 40 | 1018.7 |
| 20260503173549 | 53 | 33 | 3.5 | 8.7 | 0.00 | 0.00 | 0.00 | 44 | 1018.7 |
| 20260503173054 | 53 | 286 | 2.6 | 8.7 | 0.00 | 0.00 | 0.00 | 45 | 1018.9 |
| 20260503172548 | 53 | 217 | 1.7 | 8.7 | 0.00 | 0.00 | 0.00 | 46 | 1018.9 |
| 20260503172046 | 53 | 219 | 3.5 | 8.7 | 0.00 | 0.00 | 0.00 | 43 | 1018.9 |
| 20260503171545 | 52 | 360 | 1.7 | 8.7 | 0.00 | 0.00 | 0.00 | 45 | 1018.9 |
| 20260503171044 | 51 | 246 | 0.9 | 7.0 | 0.00 | 0.00 | 0.00 | 44 | 1018.9 |
| 20260503170546 | 51 | 292 | 2.6 | 10.4 | 0.00 | 0.00 | 0.00 | 45 | 1019.0 |
| 20260503150530 | 47 | 208 | 2.6 | 10.4 | 0.00 | 0.00 | 0.00 | 55 | 1020.1 |
| 20260503131009 | 42 | 209 | 1.7 | 6.1 | 0.00 | 0.00 | 0.00 | 74 | 1020.0 |
| 20260503130507 | 41 | 200 | 1.7 | 6.1 | 0.00 | 0.00 | 0.00 | 76 | 1020.0 |
| 20260503110549 | 30 | 42 | 0.0 | 0.0 | 0.00 | 0.00 | 0.00 | 93 | 1018.9 |
| 20260503081530 | 33 | 42 | 0.0 | 0.0 | 0.00 | 0.00 | 0.00 | 90 | 1017.6 |
| 20260503081029 | 33 | 42 | 0.0 | 0.0 | 0.00 | 0.00 | 0.00 | 90 | 1017.6 |
| 20260503080529 | 33 | 42 | 0.0 | 0.0 | 0.00 | 0.00 | 0.00 | 90 | 1017.6 |
| 20260503072522 | 34 | 42 | 0.0 | 0.0 | 0.00 | 0.00 | 0.00 | 90 | 1017.2 |
| 20260503072021 | 34 | 42 | 0.0 | 0.0 | 0.00 | 0.00 | 0.00 | 90 | 1017.2 |
| 20260503071521 | 34 | 42 | 0.0 | 0.0 | 0.00 | 0.00 | 0.00 | 90 | 1017.1 |
| 20260503071021 | 34 | 42 | 0.0 | 0.0 | 0.00 | 0.00 | 0.00 | 90 | 1017.1 |
| 20260503070520 | 34 | 42 | 0.0 | 0.0 | 0.00 | 0.00 | 0.00 | 90 | 1017.1 |
| 20260503055013 | 36 | 42 | 0.0 | 0.0 | 0.00 | 0.00 | 0.00 | 85 | 1017.0 |
| 20260503054512 | 36 | 42 | 0.0 | 0.0 | 0.00 | 0.00 | 0.00 | 85 | 1017.0 |
| 20260503054012 | 36 | 42 | 0.0 | 0.0 | 0.00 | 0.00 | 0.00 | 85 | 1017.0 |
| 20260503053513 | 36 | 42 | 0.0 | 0.0 | 0.00 | 0.00 | 0.00 | 85 | 1017.0 |
| 20260503053011 | 36 | 42 | 0.0 | 0.9 | 0.00 | 0.00 | 0.00 | 85 | 1016.9 |
| 20260503052511 | 36 | 42 | 0.0 | 0.9 | 0.00 | 0.00 | 0.00 | 85 | 1016.9 |
| 20260503052011 | 36 | 40 | 0.0 | 0.9 | 0.00 | 0.00 | 0.00 | 85 | 1016.8 |
| 20260503051511 | 36 | 38 | 0.0 | 0.9 | 0.00 | 0.00 | 0.00 | 85 | 1016.9 |
| 20260503051009 | 36 | 12 | 0.0 | 0.0 | 0.00 | 0.00 | 0.00 | 84 | 1016.9 |
| 20260503050508 | 36 | 12 | 0.0 | 0.0 | 0.00 | 0.00 | 0.00 | 84 | 1016.9 |
| 20260503050009 | 36 | 12 | 0.0 | 0.0 | 0.00 | 0.00 | 0.00 | 84 | 1016.9 |
| 20260503045509 | 36 | 12 | 0.0 | 0.0 | 0.00 | 0.00 | 0.00 | 84 | 1016.9 |
| 20260503045011 | 36 | 12 | 0.0 | 0.0 | 0.00 | 0.00 | 0.00 | 83 | 1016.9 |
| 20260503044508 | 36 | 12 | 0.0 | 0.0 | 0.00 | 0.00 | 0.00 | 83 | 1016.8 |
| 20260503044007 | 36 | 12 | 0.0 | 0.0 | 0.00 | 0.00 | 0.00 | 82 | 1016.8 |
| 20260503043506 | 37 | 12 | 0.0 | 0.0 | 0.00 | 0.00 | 0.00 | 81 | 1016.8 |
| 20260503043020 | 37 | 12 | 0.0 | 0.0 | 0.00 | 0.00 | 0.00 | 81 | 1016.8 |
| 20260503042506 | 37 | 12 | 0.0 | 0.0 | 0.00 | 0.00 | 0.00 | 80 | 1016.8 |
| 20260503042003 | 37 | 12 | 0.0 | 0.0 | 0.00 | 0.00 | 0.00 | 80 | 1016.9 |
| 20260503041502 | 37 | 12 | 0.0 | 0.0 | 0.00 | 0.00 | 0.00 | 80 | 1016.8 |
| 20260503041002 | 37 | 12 | 0.0 | 0.0 | 0.00 | 0.00 | 0.00 | 80 | 1016.8 |
| 20260503040501 | 38 | 12 | 0.0 | 0.9 | 0.00 | 0.00 | 0.00 | 79 | 1016.7 |
| 20260503040103 | 38 | 12 | 0.0 | 0.9 | 0.00 | 0.00 | 0.00 | 78 | 1016.7 |
| 20260503035559 | 38 | 12 | 0.0 | 0.0 | 0.00 | 0.00 | 0.00 | 78 | 1016.7 |
| 20260503035059 | 38 | 12 | 0.0 | 0.0 | 0.00 | 0.00 | 0.00 | 77 | 1016.8 |
| 20260503034559 | 38 | 12 | 0.0 | 0.0 | 0.00 | 0.00 | 0.00 | 77 | 1016.7 |
| 20260503034101 | 39 | 12 | 0.0 | 0.9 | 0.00 | 0.00 | 0.00 | 76 | 1016.8 |
| 20260503033558 | 39 | 12 | 0.0 | 0.9 | 0.00 | 0.00 | 0.00 | 76 | 1016.8 |
| 20260503033058 | 39 | 12 | 0.0 | 1.7 | 0.00 | 0.00 | 0.00 | 76 | 1016.8 |
| 20260503032558 | 39 | 15 | 0.0 | 1.7 | 0.00 | 0.00 | 0.00 | 75 | 1016.8 |
| 20260503032058 | 39 | 14 | 0.0 | 0.0 | 0.00 | 0.00 | 0.00 | 74 | 1016.8 |
| 20260503031559 | 40 | 14 | 0.0 | 0.0 | 0.00 | 0.00 | 0.00 | 74 | 1016.7 |
| 20260503031058 | 40 | 14 | 0.0 | 0.0 | 0.00 | 0.00 | 0.00 | 73 | 1016.7 |
| 20260503030558 | 40 | 14 | 0.0 | 0.0 | 0.00 | 0.00 | 0.00 | 72 | 1016.8 |
| 20260503025557 | 41 | 14 | 0.0 | 1.7 | 0.00 | 0.00 | 0.00 | 72 | 1016.8 |
| 20260503025059 | 41 | 14 | 0.0 | 1.7 | 0.00 | 0.00 | 0.00 | 70 | 1016.8 |
| 20260503024558 | 42 | 15 | 0.0 | 2.6 | 0.00 | 0.00 | 0.00 | 70 | 1016.8 |
| 20260503024057 | 42 | 15 | 0.0 | 4.3 | 0.00 | 0.00 | 0.00 | 69 | 1016.7 |
| 20260503023557 | 42 | 11 | 0.9 | 4.3 | 0.00 | 0.00 | 0.00 | 68 | 1016.7 |
| 20260503023102 | 42 | 355 | 1.7 | 3.5 | 0.00 | 0.00 | 0.00 | 68 | 1016.7 |
| 20260503022555 | 42 | 355 | 0.9 | 2.6 | 0.00 | 0.00 | 0.00 | 68 | 1016.7 |
| 20260503022056 | 42 | 12 | 0.9 | 5.2 | 0.00 | 0.00 | 0.00 | 68 | 1016.7 |
| 20260503021601 | 43 | 15 | 1.7 | 5.2 | 0.00 | 0.00 | 0.00 | 66 | 1016.6 |
| 20260503021054 | 43 | 5 | 0.9 | 4.3 | 0.00 | 0.00 | 0.00 | 68 | 1016.6 |
| 20260503020554 | 43 | 38 | 1.7 | 4.3 | 0.00 | 0.00 | 0.00 | 66 | 1016.5 |
| 20260503020059 | 42 | 40 | 0.9 | 4.3 | 0.00 | 0.00 | 0.00 | 67 | 1016.5 |
| 20260503015553 | 42 | 5 | 0.9 | 4.3 | 0.00 | 0.00 | 0.00 | 66 | 1016.4 |
| 20260503015053 | 42 | 33 | 0.0 | 2.6 | 0.00 | 0.00 | 0.00 | 67 | 1016.4 |
| 20260503014556 | 43 | 17 | 0.0 | 3.5 | 0.00 | 0.00 | 0.00 | 66 | 1016.3 |
| 20260503014051 | 43 | 5 | 0.0 | 3.5 | 0.00 | 0.00 | 0.00 | 65 | 1016.3 |
| 20260503013551 | 43 | 5 | 0.9 | 3.5 | 0.00 | 0.00 | 0.00 | 64 | 1016.2 |
| 20260503013051 | 43 | 44 | 0.9 | 3.5 | 0.00 | 0.00 | 0.00 | 63 | 1016.2 |
| 20260503012550 | 43 | 17 | 0.9 | 3.5 | 0.00 | 0.00 | 0.00 | 64 | 1016.1 |
| 20260503012050 | 43 | 336 | 0.9 | 3.5 | 0.00 | 0.00 | 0.00 | 64 | 1016.2 |
| 20260503011551 | 44 | 5 | 0.0 | 1.7 | 0.00 | 0.00 | 0.00 | 63 | 1016.1 |
| 20260503011049 | 44 | 5 | 0.0 | 4.3 | 0.00 | 0.00 | 0.00 | 62 | 1016.0 |
| 20260503010549 | 44 | 33 | 0.9 | 3.5 | 0.00 | 0.00 | 0.00 | 61 | 1015.9 |
| 20260503010058 | 44 | 59 | 1.7 | 3.5 | 0.00 | 0.00 | 0.00 | 60 | 1015.8 |
| 20260503005549 | 44 | 29 | 0.0 | 4.3 | 0.00 | 0.01 | 0.00 | 60 | 1015.7 |
| 20260503005049 | 45 | 355 | 1.7 | 4.3 | 0.00 | 0.01 | 0.00 | 59 | 1015.6 |